Temperature
3 3 3 3 3 2 3 4 5 6 5 5 4 3 2 1 0 -0 -0 -0 -0 -0 -0 -0 -0 0 0 0 1 1 1 1 1 1 1 1 1 1 1 1 2 2 2 2
2 2 2 2 3 3 3 3 3 4 4 3 2 1 1 0 -0 -1 -1 -1 -1 -1 -1 -0 -0 -0 -0 -0 0 0 0 0 1 1 1 1 1 1 1 1 1 1 1 1
4 2 2 3 2 2 2 2 2 3 3 2 2 1 1 -0 -1 -1 -1 -1 -1 -1 -1 -1 -1 -0 -0 -0 -0 -0 -0 -0 -0 0 0 -0 0 0 0 0 0 0 0 0
2 2 4 4 1 2 1 1 1 1 1 1 0 -0 -1 -1 -1 -2 -2 -2 -2 -1 -1 -1 -1 -1 -1 -1 -1 -1 -1 -1 -1 -1 -1 -1 -1 -1 -1 -0 -0 -0 -0 -0
2 3 4 3 1 0 0 1 0 -0 -0 -1 -1 -1 -0 -1 -2 -2 -2 -2 -2 -1 -1 -1 -1 -1 -1 -1 -1 -1 -1 -1 -1 -1 -1 -1 -1 -1 -1 -1 -1 -1 -1 -1
1 3 4 3 1 -1 0 1 -0 -1 -1 -2 -1 1 1 -2 -2 -2 -2 -2 -2 -1 -2 -1 -1 -1 -1 -2 -2 -2 -2 -2 -2 -2 -2 -2 -2 -2 -2 -2 -2 -2 -2 -2
1 2 3 1 -1 -1 2 2 -1 -2 -2 -3 -2 -1 -2 -2 -2 -2 -2 -2 -2 -2 -2 -2 -2 -2 -2 -2 -2 -2 -2 -2 -2 -2 -2 -2 -2 -2 -2 -2 -2 -3 -3 -3
1 2 2 -1 -1 0 0 -2 -2 -3 -3 -3 -3 -3 -3 -3 -3 -3 -2 -2 -2 -2 -2 -2 -2 -2 -2 -2 -2 -2 -2 -2 -3 -3 -3 -3 -3 -3 -3 -3 -3 -3 -3 -3
1 2 -1 -2 -2 -2 -2 -3 -3 -3 -3 -4 -4 -4 -3 -3 -3 -3 -3 -3 -2 -2 -3 -3 -3 -3 -3 -3 -3 -3 -3 -3 -3 -3 -3 -3 -4 -4 -4 -4 -4 -4 -4 -4
-1 -1 -2 -3 -3 -3 -3 -3 -3 -3 -3 -4 -4 -4 -4 -4 -3 -3 -3 -3 -3 -3 -3 -3 -3 -3 -3 -3 -3 -3 -3 -3 -3 -4 -4 -4 -4 -4 -5 -5 -5 -5 -5 -5
-2 -2 -2 -2 -3 -3 -3 -3 -3 -3 -3 -4 -4 -4 -4 -4 -4 -4 -3 -3 -3 -3 -3 -3 -3 -3 -3 -3 -4 -4 -4 -4 -4 -4 -4 -5 -5 -5 -5 -5 -5 -5 -5 -5
0 -1 -2 -2 -2 -3 -3 -3 -3 -3 -3 -4 -4 -4 -4 -4 -4 -4 -4 -4 -4 -4 -4 -4 -4 -4 -4 -4 -4 -4 -4 -4 -5 -5 -5 -5 -5 -5 -5 -5 -5 -5 -5 -5
-2 -2 -3 -3 -3 -3 -3 -3 -3 -3 -4 -4 -4 -4 -4 -4 -4 -4 -4 -4 -4 -4 -4 -4 -4 -4 -4 -4 -4 -5 -5 -5 -5 -5 -6 -6 -6 -6 -6 -6 -6 -6 -6 -5
-3 -3 -3 -3 -4 -3 -3 -3 -4 -4 -4 -4 -4 -4 -5 -5 -5 -5 -5 -5 -5 -5 -5 -5 -5 -5 -5 -5 -5 -5 -5 -5 -5 -6 -6 -6 -6 -6 -6 -6 -6 -6 -6 -6
-3 -3 -3 -3 -4 -4 -4 -4 -4 -4 -4 -5 -5 -5 -5 -5 -5 -5 -5 -5 -5 -5 -6 -6 -5 -5 -5 -5 -5 -5 -6 -6 -6 -6 -6 -6 -6 -6 -6 -6 -6 -6 -6 -6
-3 -4 -4 -4 -4 -4 -4 -4 -4 -5 -5 -5 -5 -5 -5 -5 -5 -5 -5 -6 -6 -6 -6 -6 -6 -6 -6 -6 -6 -6 -6 -6 -6 -6 -6 -6 -7 -7 -7 -7 -7 -6 -6 -6
-4 -4 -4 -4 -4 -4 -4 -5 -5 -5 -5 -5 -5 -5 -5 -6 -6 -6 -6 -6 -6 -6 -6 -6 -6 -6 -6 -6 -6 -6 -6 -6 -6 -6 -6 -7 -7 -7 -7 -7 -7 -6 -6 -6
-3 -3 -4 -4 -4 -4 -5 -5 -5 -5 -5 -5 -5 -6 -6 -6 -6 -6 -6 -6 -6 -6 -6 -6 -6 -6 -6 -6 -6 -6 -6 -6 -6 -6 -7 -7 -7 -7 -7 -7 -7 -7 -6 -6
-4 -4 -4 -4 -4 -4 -5 -5 -5 -5 -5 -5 -6 -6 -6 -6 -6 -6 -6 -6 -6 -6 -6 -6 -6 -6 -6 -6 -6 -6 -6 -7 -7 -7 -7 -7 -7 -7 -7 -7 -7 -7 -7 -7
-4 -4 -4 -4 -4 -5 -5 -5 -5 -5 -5 -6 -6 -6 -6 -6 -6 -6 -6 -6 -6 -6 -6 -6 -6 -6 -6 -7 -7 -6 -7 -7 -7 -7 -7 -7 -7 -7 -7 -7 -7 -7 -7 -7
-4 -4 -4 -4 -5 -5 -5 -5 -5 -5 -6 -6 -6 -6 -6 -6 -6 -6 -6 -6 -6 -6 -6 -6 -6 -6 -6 -7 -7 -7 -7 -7 -7 -7 -7 -7 -7 -7 -7 -7 -7 -7 -7 -7
-4 -4 -4 -5 -5 -5 -5 -5 -6 -6 -6 -6 -6 -6 -6 -6 -6 -7 -7 -6 -6 -6 -6 -6 -6 -6 -7 -7 -7 -7 -7 -7 -7 -7 -7 -7 -7 -7 -7 -7 -7 -7 -7 -7
-4 -5 -5 -5 -5 -5 -5 -6 -6 -6 -6 -6 -6 -6 -6 -7 -7 -7 -7 -7 -7 -7 -7 -7 -7 -7 -7 -7 -7 -7 -7 -7 -7 -7 -7 -7 -8 -8 -8 -8 -8 -8 -7 -7
-5 -5 -5 -5 -5 -6 -6 -6 -6 -6 -6 -6 -6 -7 -7 -7 -7 -7 -7 -7 -7 -7 -7 -7 -7 -7 -7 -7 -7 -7 -7 -7 -7 -8 -8 -8 -8 -8 -8 -8 -8 -8 -8 -7
-5 -5 -5 -6 -6 -6 -6 -6 -6 -6 -6 -6 -7 -7 -7 -7 -7 -7 -7 -7 -7 -7 -7 -7 -7 -7 -7 -7 -7 -7 -7 -7 -8 -8 -8 -8 -8 -8 -8 -8 -8 -8 -8 -7
-5 -5 -6 -6 -6 -6 -6 -6 -6 -7 -7 -7 -7 -7 -7 -7 -7 -7 -7 -7 -7 -7 -7 -7 -7 -7 -7 -7 -7 -7 -7 -8 -8 -8 -8 -8 -8 -8 -8 -8 -8 -8 -8 -8
-6 -6 -6 -6 -6 -6 -6 -6 -7 -7 -7 -7 -7 -7 -7 -7 -7 -7 -7 -7 -7 -7 -7 -7 -7 -8 -8 -8 -8 -8 -8 -8 -8 -8 -8 -8 -8 -8 -8 -8 -8 -8 -8 -8
Wind_Speed
7 6 4 6 7 7 8 8 7 8 9 10 8 8 7 7 6 6 7 7 7 7 6 6 6 6 6 6 5 4 3 3 3 3 3 2 2 2 1 1 2 2 2 3
4 3 4 6 8 9 9 8 9 11 11 8 8 6 6 6 6 7 7 7 8 7 7 7 7 7 7 6 5 4 3 3 3 3 3 2 2 2 1 1 1 1 1 2
3 2 3 5 6 7 5 5 6 7 7 7 7 7 7 6 6 7 8 9 8 8 8 8 8 7 7 6 4 3 3 3 3 3 2 2 2 2 1 1 1 1 1 1
2 1 4 1 1 3 4 4 5 5 6 6 8 9 7 5 6 7 8 9 9 8 8 8 8 7 6 5 3 2 2 3 2 2 2 2 2 2 2 2 1 2 2 2
1 3 5 3 1 2 3 3 2 5 7 8 8 7 4 3 5 7 8 9 8 7 7 7 7 6 4 3 3 3 3 2 2 2 2 2 2 3 2 2 2 2 2 2
2 3 4 1 1 0 2 3 0 3 6 7 6 5 4 7 9 9 8 7 7 7 7 7 6 5 3 3 3 3 3 3 3 2 2 2 2 2 2 2 2 2 3 3
5 5 5 2 1 2 3 2 2 4 5 5 5 5 7 10 9 8 8 7 7 6 5 6 6 4 3 3 3 3 3 2 3 2 2 2 2 2 2 2 2 2 3 3
5 5 5 2 2 2 2 3 3 4 5 6 7 8 8 8 9 8 7 7 6 5 5 6 5 4 3 4 4 3 2 2 2 3 2 2 2 2 2 2 2 2 3 3
5 4 1 2 2 1 2 3 4 4 5 6 7 7 8 8 8 7 6 6 5 5 5 5 5 4 4 4 4 3 2 2 2 3 3 3 2 2 3 2 2 2 2 3
4 6 4 3 4 4 4 4 5 5 5 5 6 8 8 7 7 7 6 5 5 4 5 5 5 5 4 4 3 2 2 2 2 2 3 3 3 2 2 2 2 2 3 3
6 6 5 6 5 5 5 5 5 5 5 6 6 7 7 7 6 6 5 4 4 4 4 5 6 5 4 4 3 2 2 2 2 2 2 2 3 3 3 3 3 3 3 3
6 5 4 4 4 4 4 5 5 6 6 6 6 7 6 6 5 5 5 4 4 4 5 5 5 5 5 4 3 2 2 2 2 2 2 2 2 3 4 3 5 5 5 4
5 4 4 4 4 3 4 5 5 5 6 6 6 5 5 5 5 4 4 4 4 4 5 5 4 5 5 3 2 2 2 2 2 2 2 2 2 2 3 4 4 5 5 5
5 3 4 4 4 4 4 4 4 4 4 4 4 4 4 4 4 4 4 4 4 4 4 4 4 4 5 3 2 2 2 2 2 1 1 1 2 2 2 3 4 4 5 5
5 4 4 3 3 3 2 2 2 3 4 4 4 3 3 3 4 4 4 4 4 3 4 4 4 4 4 3 2 2 2 1 1 1 1 1 2 2 2 3 3 3 4 4
4 3 4 4 4 3 3 3 3 4 4 4 4 4 3 3 3 4 4 3 3 4 4 4 4 4 4 2 2 1 1 2 2 1 1 1 1 2 2 2 3 3 3 3
3 4 4 4 5 4 4 4 4 4 4 4 4 4 3 3 3 3 3 3 3 3 3 3 4 4 3 2 2 1 1 1 2 1 1 1 1 2 2 2 2 3 3 3
6 5 6 6 5 5 5 4 4 4 4 4 4 2 2 2 3 3 4 3 3 3 3 3 3 3 2 2 2 1 1 1 1 1 1 1 2 2 2 2 3 3 3 3
5 5 5 5 5 5 5 4 4 4 3 3 2 2 2 2 3 3 3 3 3 3 3 4 4 3 3 3 3 1 1 1 1 1 1 1 2 2 2 2 2 2 3 3
4 4 4 4 4 4 4 3 3 2 2 2 1 2 2 2 2 2 2 2 2 3 3 4 3 3 3 2 3 1 1 1 1 1 1 1 2 2 2 2 2 2 3 3
4 4 3 3 3 3 3 2 2 2 2 1 2 2 2 2 2 2 2 2 3 3 3 4 3 2 2 2 2 1 1 1 1 1 1 2 2 2 2 2 2 2 3 3
3 3 3 2 2 2 2 2 2 2 2 2 2 2 1 2 2 2 2 2 3 4 3 3 2 2 2 2 1 1 1 1 1 1 1 1 1 2 2 2 2 3 3 3
3 3 3 3 2 2 1 1 2 2 2 2 2 2 2 2 2 2 2 2 3 4 3 3 3 3 3 1 1 1 1 1 1 1 1 2 2 2 2 3 3 3 3 3
2 2 2 2 2 2 2 2 2 2 2 2 2 2 2 2 2 2 2 3 4 4 3 3 4 3 3 1 1 1 1 1 1 1 2 2 2 2 2 3 3 3 3 4
2 2 2 3 3 2 2 1 1 1 1 1 2 2 2 2 2 2 2 3 3 3 3 3 4 3 2 1 1 1 1 1 1 1 2 2 2 2 2 2 3 3 3 3
2 3 3 3 2 2 2 2 1 1 1 1 1 1 1 1 1 2 2 2 2 3 2 2 2 2 1 1 1 1 1 2 2 2 2 2 2 2 2 3 3 3 3 3
2 2 1 2 2 2 2 2 2 2 2 2 2 2 1 1 1 1 1 1 2 2 2 2 2 1 1 1 1 1 1 1 1 1 2 2 2 2 3 3 3 3 3 3
Wind_Direction
266 269 253 246 244 229 227 237 249 269 279 294 314 314 315 322 325 323 326 325 324 322 322 323 325 325 324 322 324 319 311 312 318 324 334 333 310 302 292 267 259 249 238 243
259 248 253 262 258 242 238 241 250 270 281 306 315 314 315 319 322 322 321 320 319 317 317 317 314 314 312 313 317 313 307 311 323 331 344 339 323 319 324 336 332 301 274 260
254 305 283 265 244 220 221 231 234 254 280 316 320 321 313 314 317 317 317 316 315 314 313 310 308 305 303 304 308 310 317 325 327 331 336 330 327 325 326 329 345 333 318 298
277 304 245 276 62 201 215 250 250 268 298 314 312 312 304 308 312 315 316 315 312 312 314 315 312 307 306 312 318 328 332 333 332 327 323 323 323 324 332 342 347 333 328 321
215 259 271 269 219 189 213 262 264 269 290 308 318 309 304 328 324 317 313 309 307 309 311 314 313 308 306 316 323 329 330 339 342 337 339 340 344 344 343 345 343 339 333 332
208 244 254 311 93 117 201 249 4 297 302 313 319 310 323 337 324 319 318 315 316 318 322 325 326 328 335 344 347 343 340 343 346 352 352 352 354 351 342 327 330 340 341 337
224 242 265 325 296 186 222 311 338 305 302 300 291 291 306 314 316 317 317 319 322 323 329 328 329 335 344 347 338 332 338 351 357 356 357 357 355 350 353 347 349 355 347 338
204 224 249 102 140 196 289 337 312 303 300 294 291 298 304 310 315 318 321 323 327 328 329 331 335 339 339 336 333 338 347 -0 7 10 7 1 5 359 359 1 6 0 357 347
212 229 347 160 202 249 293 287 295 296 296 291 290 295 304 309 313 314 316 319 325 326 328 335 341 341 332 327 333 345 356 2 6 10 9 4 6 1 354 351 355 348 345 341
247 255 257 246 251 270 279 279 287 287 286 282 285 292 300 305 309 313 315 318 323 328 330 331 337 337 328 327 333 342 350 355 3 9 10 7 357 354 352 345 339 333 332 332
247 263 274 253 256 271 282 289 292 293 289 286 288 291 294 298 303 306 309 312 317 321 321 324 330 333 338 338 340 339 342 353 356 4 6 2 0 355 349 339 329 321 323 323
244 240 236 264 272 271 271 283 287 293 296 295 289 287 294 297 302 305 308 313 317 323 325 324 328 328 333 334 332 331 340 349 348 352 352 352 357 2 17 359 355 349 342 330
248 261 259 272 279 273 276 283 288 288 288 294 298 295 295 296 305 310 311 315 317 320 322 325 327 328 333 334 332 328 325 329 336 339 340 345 351 352 350 356 0 4 0 350
235 237 253 259 271 284 283 285 292 298 299 300 302 304 301 301 310 317 319 317 318 321 326 328 330 331 335 334 333 329 324 329 328 325 329 336 338 332 329 331 336 343 355 2
237 242 249 266 270 276 284 291 304 310 315 316 312 309 310 310 314 317 320 322 322 325 329 330 333 334 339 337 338 336 329 326 327 332 332 327 323 321 323 322 323 328 336 349
247 249 243 246 256 268 276 281 284 292 301 307 310 311 309 307 310 316 323 328 325 321 323 326 330 334 337 334 332 327 329 344 344 333 326 323 318 315 315 314 316 322 327 335
206 229 238 248 251 259 263 265 267 276 287 295 302 307 311 315 321 330 335 331 318 314 319 322 326 333 335 330 319 310 310 322 337 332 324 312 303 298 299 302 309 315 319 328
230 234 231 230 234 245 261 269 272 278 282 289 300 307 313 313 312 318 322 322 325 331 334 329 329 335 333 323 312 307 307 315 314 305 304 301 299 295 297 300 308 312 320 327
227 231 234 235 236 236 245 257 267 275 284 288 287 288 297 299 300 306 314 319 319 325 333 332 332 336 332 326 322 300 300 301 305 306 303 297 301 301 299 300 304 310 316 320
225 225 226 233 236 234 242 255 265 274 279 275 275 290 303 304 304 310 315 308 308 312 315 316 322 326 326 323 326 308 293 287 292 299 298 295 297 301 301 301 305 308 311 313
215 215 217 225 236 243 244 246 249 262 275 260 248 265 282 299 307 303 299 310 325 331 323 320 322 317 316 315 312 303 289 283 285 287 286 288 294 301 302 301 302 305 308 310
212 210 216 221 230 253 258 246 238 243 253 257 261 267 277 294 299 297 287 292 312 327 329 324 320 319 324 323 322 310 297 286 285 287 282 280 283 288 293 297 298 302 303 304
209 210 213 217 225 240 261 249 237 234 236 244 248 250 257 272 276 273 290 310 315 321 327 324 328 331 331 336 327 307 298 296 296 294 289 285 283 283 286 291 295 297 299 303
207 209 213 211 191 202 234 254 254 254 251 258 256 252 251 265 278 274 287 300 315 320 324 325 333 338 346 346 334 318 305 296 292 291 290 288 286 287 288 290 293 297 298 301
204 203 195 192 205 222 231 236 246 254 260 271 281 272 257 258 263 282 295 297 311 323 326 331 337 341 347 332 328 318 306 293 293 291 284 285 288 289 290 292 294 295 297 297
202 209 216 225 229 227 219 217 230 243 251 269 290 290 289 289 281 283 290 299 307 321 327 325 328 333 333 328 320 311 301 297 297 299 295 292 286 285 286 290 293 292 292 293
201 205 212 230 228 218 218 222 230 239 239 245 269 280 289 292 290 294 299 306 318 323 320 319 321 322 321 322 317 309 301 299 298 295 290 288 285 283 285 287 288 290 290 290
Height
1490 1489 1490 1488 1488 1490 1489 1482 1478 1471 1473 1471 1474 1476 1476 1474 1472 1470 1468 1466 1464 1462 1460 1458 1456 1454 1452 1450 1448 1446 1444 1443 1442 1441 1440 1439 1438 1438 1438 1438 1439 1439 1439 1439
1490 1488 1489 1487 1485 1485 1485 1483 1481 1478 1475 1475 1476 1476 1474 1473 1471 1469 1467 1465 1462 1460 1458 1456 1454 1452 1450 1447 1446 1444 1443 1441 1440 1439 1438 1437 1436 1436 1435 1436 1436 1436 1436 1436
1481 1489 1487 1478 1479 1481 1482 1481 1480 1476 1475 1476 1475 1473 1472 1471 1470 1468 1465 1463 1461 1458 1456 1454 1452 1450 1448 1446 1444 1442 1441 1440 1439 1437 1436 1435 1434 1434 1433 1433 1433 1432 1433 1432
1485 1487 1479 1475 1480 1479 1480 1480 1481 1479 1477 1476 1475 1473 1471 1469 1468 1466 1464 1461 1459 1456 1454 1452 1450 1448 1445 1443 1442 1440 1439 1438 1437 1436 1435 1434 1433 1432 1432 1431 1430 1430 1429 1429
1486 1479 1471 1474 1478 1479 1479 1478 1479 1478 1476 1475 1474 1471 1468 1467 1466 1464 1462 1459 1457 1454 1452 1450 1448 1445 1443 1441 1440 1439 1438 1437 1436 1435 1433 1432 1431 1431 1430 1429 1428 1428 1427 1426
1486 1477 1469 1470 1478 1478 1480 1474 1477 1476 1475 1474 1473 1468 1467 1466 1464 1461 1459 1457 1455 1452 1450 1447 1445 1443 1442 1440 1438 1437 1437 1435 1434 1433 1432 1431 1431 1430 1429 1428 1427 1426 1425 1425
1484 1478 1470 1476 1477 1478 1474 1471 1475 1474 1474 1473 1472 1471 1468 1465 1462 1460 1457 1455 1453 1450 1448 1446 1444 1443 1441 1439 1438 1437 1436 1435 1433 1432 1432 1431 1430 1429 1428 1427 1425 1425 1424 1423
1482 1477 1472 1477 1477 1476 1474 1474 1473 1473 1472 1471 1470 1467 1465 1463 1460 1458 1455 1453 1451 1449 1447 1445 1443 1442 1440 1438 1437 1436 1435 1434 1433 1432 1431 1430 1429 1427 1426 1425 1424 1423 1422 1421
1477 1474 1474 1475 1475 1475 1474 1473 1472 1471 1470 1468 1467 1465 1463 1461 1458 1456 1454 1451 1449 1447 1445 1444 1442 1440 1439 1438 1436 1435 1434 1433 1432 1431 1430 1428 1427 1426 1425 1424 1423 1422 1421 1420
1477 1472 1473 1474 1473 1472 1472 1471 1469 1469 1467 1466 1464 1462 1460 1458 1456 1454 1452 1450 1448 1446 1444 1443 1441 1439 1438 1436 1435 1434 1433 1432 1431 1430 1429 1428 1427 1426 1425 1424 1423 1422 1421 1420
1474 1471 1471 1469 1469 1469 1469 1468 1467 1466 1465 1463 1461 1459 1457 1455 1453 1451 1450 1448 1446 1445 1443 1441 1440 1438 1437 1436 1434 1433 1432 1431 1430 1429 1428 1427 1426 1426 1425 1424 1423 1422 1420 1419
1466 1466 1468 1467 1466 1466 1466 1465 1464 1463 1461 1460 1459 1456 1454 1452 1451 1449 1448 1446 1444 1443 1441 1440 1439 1437 1436 1435 1433 1432 1431 1430 1429 1428 1428 1427 1426 1425 1424 1423 1422 1421 1420 1419
1465 1464 1465 1464 1464 1463 1463 1462 1461 1460 1458 1457 1455 1454 1452 1450 1449 1447 1446 1444 1443 1441 1440 1438 1437 1436 1434 1433 1432 1431 1430 1429 1428 1427 1427 1426 1425 1424 1423 1422 1421 1420 1419 1418
1462 1462 1462 1461 1461 1461 1460 1459 1458 1457 1456 1454 1453 1451 1450 1448 1447 1445 1444 1443 1441 1440 1438 1437 1436 1434 1433 1432 1431 1429 1429 1428 1427 1426 1426 1425 1424 1423 1422 1421 1420 1419 1418 1417
1458 1459 1459 1459 1458 1458 1457 1456 1455 1454 1453 1452 1451 1449 1448 1446 1445 1443 1442 1441 1439 1438 1437 1436 1434 1433 1432 1430 1429 1428 1427 1427 1426 1425 1425 1424 1423 1423 1422 1421 1419 1418 1417 1416
1455 1456 1456 1456 1455 1455 1454 1453 1452 1451 1450 1449 1448 1447 1446 1444 1443 1442 1440 1439 1438 1437 1435 1434 1433 1432 1430 1429 1428 1427 1426 1426 1425 1424 1424 1423 1422 1421 1421 1420 1418 1417 1416 1415
1452 1452 1452 1452 1452 1451 1451 1450 1450 1449 1448 1447 1446 1445 1444 1442 1441 1440 1439 1438 1436 1435 1434 1433 1432 1430 1429 1428 1427 1426 1426 1425 1424 1424 1423 1422 1421 1420 1420 1419 1418 1416 1415 1414
1449 1449 1449 1449 1448 1448 1448 1447 1447 1446 1445 1444 1444 1443 1442 1441 1439 1438 1437 1436 1435 1434 1433 1432 1430 1429 1428 1427 1426 1425 1425 1424 1423 1423 1422 1421 1420 1419 1419 1418 1417 1416 1414 1413
1445 1445 1446 1446 1446 1445 1445 1445 1444 1444 1443 1443 1442 1441 1440 1439 1438 1437 1436 1435 1434 1432 1432 1431 1429 1428 1427 1426 1425 1424 1424 1423 1422 1422 1421 1420 1419 1418 1417 1417 1416 1415 1414 1412
1442 1442 1442 1443 1443 1443 1442 1442 1442 1442 1441 1441 1440 1440 1439 1438 1437 1436 1435 1434 1433 1432 1431 1429 1428 1427 1426 1425 1424 1423 1423 1422 1421 1420 1420 1419 1418 1417 1416 1416 1415 1414 1413 1411
1439 1439 1440 1440 1440 1440 1440 1440 1440 1439 1439 1439 1438 1438 1437 1436 1436 1435 1434 1433 1432 1431 1430 1429 1428 1427 1425 1424 1423 1423 1422 1421 1420 1419 1418 1418 1417 1416 1415 1415 1414 1413 1412 1410
1436 1437 1437 1438 1438 1438 1438 1438 1438 1437 1437 1437 1436 1436 1435 1435 1434 1433 1433 1432 1431 1430 1429 1428 1427 1426 1425 1423 1422 1422 1421 1420 1419 1418 1417 1416 1416 1415 1414 1413 1412 1411 1410 1409
1434 1435 1435 1436 1436 1436 1436 1436 1436 1435 1435 1435 1434 1434 1433 1433 1432 1432 1431 1431 1429 1429 1428 1427 1426 1425 1423 1422 1421 1420 1419 1418 1418 1417 1416 1415 1414 1414 1413 1412 1411 1410 1409 1408
1433 1433 1434 1434 1434 1434 1433 1433 1433 1433 1433 1433 1432 1432 1431 1431 1430 1430 1429 1429 1428 1427 1426 1425 1424 1423 1422 1421 1420 1419 1418 1417 1416 1416 1415 1414 1413 1412 1411 1411 1409 1408 1407 1406
1431 1431 1431 1432 1432 1431 1431 1431 1431 1431 1431 1430 1430 1430 1429 1429 1429 1428 1428 1427 1427 1426 1425 1424 1423 1422 1421 1420 1419 1418 1417 1416 1415 1414 1413 1413 1412 1411 1410 1409 1408 1407 1406 1405
1429 1429 1429 1429 1429 1429 1429 1429 1429 1429 1428 1428 1428 1428 1428 1427 1427 1427 1426 1426 1425 1424 1424 1423 1422 1421 1420 1419 1418 1417 1416 1415 1414 1413 1412 1411 1411 1410 1408 1407 1406 1405 1404 1403
1427 1427 1427 1427 1427 1427 1427 1427 1427 1427 1427 1426 1426 1426 1426 1426 1426 1425 1425 1424 1424 1423 1422 1421 1420 1419 1418 1417 1416 1416 1415 1414 1413 1412 1411 1410 1409 1408 1407 1406 1405 1404 1403 1401